Wind_Speed
28 29 28 28 28 28 27 26 25 25 24 23 22 21 20 19 18 17 16 14 13 11 10 8 7 6 5 5 5 5 6 6 6 6 7 7 8 9 9 10 12 12 13
30 30 30 29 29 29 29 28 28 27 26 26 24 23 22 21 20 19 18 16 14 13 11 10 8 7 7 6 6 6 7 7 7 7 7 8 8 9 10 11 12 13 13
32 31 31 31 31 31 30 30 30 29 29 27 26 25 24 23 22 21 19 18 16 15 13 12 10 9 8 8 8 7 8 8 8 7 8 8 9 10 11 12 13 13 14
34 33 33 33 33 33 32 32 31 31 31 29 28 27 26 25 24 23 21 20 18 17 15 13 12 10 9 9 9 9 9 9 9 8 8 9 9 10 12 12 13 14 14
36 36 35 35 35 35 34 33 33 33 33 32 30 29 28 27 26 24 23 22 20 18 17 15 14 12 11 10 10 10 10 10 9 9 9 9 10 11 12 13 13 14 15
39 38 38 37 37 37 36 36 35 34 34 34 32 31 30 29 27 26 24 23 22 20 19 17 16 14 13 12 11 11 11 10 10 10 10 10 11 12 13 13 14 15 17
41 41 40 40 39 39 38 38 37 36 36 35 34 33 32 30 29 27 26 24 23 22 21 19 17 16 14 13 12 12 11 11 11 11 11 11 11 12 13 14 15 16 18
44 44 43 42 41 41 40 40 39 38 37 37 36 35 33 32 30 29 27 26 25 23 22 20 19 17 16 14 14 13 12 12 12 12 12 12 12 13 14 15 16 17 19
46 46 45 45 43 43 42 41 41 40 39 38 37 36 35 33 32 30 28 27 26 25 23 22 20 19 17 16 15 14 14 13 13 13 13 13 14 14 15 17 18 18 20
49 48 48 47 46 45 44 43 42 41 40 40 39 38 37 35 33 31 30 29 27 26 25 24 22 21 19 18 17 16 15 15 14 14 14 14 15 16 17 18 19 20 21
51 51 50 49 48 47 46 45 43 43 42 41 40 39 38 36 35 32 31 30 29 27 26 25 23 22 20 19 18 17 16 16 16 16 16 16 16 17 18 19 20 21 22
54 53 52 51 50 49 48 47 45 44 43 42 41 40 38 37 36 34 32 31 30 29 27 26 25 23 22 21 20 19 18 17 17 17 17 17 18 18 19 20 21 22 23
56 56 54 53 52 51 50 49 48 46 45 44 42 41 40 39 37 35 34 32 31 30 29 28 26 24 23 22 21 20 19 18 18 18 18 18 19 19 20 21 22 23 24
58 57 56 55 54 54 52 51 50 48 47 45 43 42 41 40 38 37 35 34 32 31 30 29 27 26 24 23 22 21 20 20 20 20 20 19 20 20 21 22 23 24 25
61 59 58 57 57 55 54 53 51 50 48 47 45 44 42 41 40 38 37 35 34 32 31 30 28 27 25 24 23 22 21 21 21 21 21 21 21 22 22 23 24 25 26
62 61 60 60 58 57 55 54 52 51 50 48 47 46 44 42 41 40 38 36 35 33 32 30 29 28 26 25 24 23 23 22 22 22 22 22 23 23 23 24 25 26 28
63 62 62 61 60 59 57 55 54 53 52 50 49 47 46 44 42 41 39 38 36 34 33 31 30 29 28 27 26 25 25 24 23 23 23 24 24 24 25 26 27 28 29
63 63 63 62 62 60 58 56 55 55 53 52 50 48 47 45 43 42 40 39 37 35 34 32 31 30 29 28 27 27 26 25 25 25 25 25 25 26 26 27 28 29 31
64 64 64 63 63 62 60 57 56 55 53 52 50 49 48 47 45 43 41 40 38 36 35 33 32 31 30 29 28 28 27 26 26 26 26 26 27 27 28 28 29 30 32
64 64 65 64 63 63 61 59 57 56 54 52 50 49 48 47 46 44 42 40 39 37 36 35 33 32 31 30 29 29 28 27 27 27 27 27 28 28 29 30 31 32 33
64 65 65 64 64 63 62 61 58 56 54 52 51 50 49 47 46 45 43 41 40 38 37 35 34 33 32 31 30 29 28 28 28 28 28 29 29 29 30 31 32 33 34
64 64 64 64 64 64 62 60 58 56 55 53 51 50 49 48 47 45 44 42 40 39 38 36 35 33 32 31 31 30 29 29 29 29 29 30 30 31 31 32 33 34 36
61 64 64 64 64 63 62 61 59 57 55 54 52 50 49 48 47 46 44 42 41 39 38 36 36 34 33 32 32 31 30 29 29 29 30 31 32 32 32 33 34 36 37
59 62 63 63 64 63 62 60 59 58 55 53 52 50 49 48 47 46 44 43 41 39 38 36 35 35 34 33 32 31 31 30 30 30 31 32 32 33 33 34 36 37 38
57 59 61 64 64 63 62 60 60 58 55 53 53 52 49 48 47 46 45 43 41 40 38 37 36 35 34 33 32 32 31 31 31 31 32 33 33 33 34 35 36 38 39
56 58 59 62 64 63 63 61 60 59 57 54 52 52 50 48 47 45 44 43 41 40 39 37 36 35 34 33 33 32 32 32 32 32 32 33 34 34 35 36 37 38 39
Wind_Direction
238 236 235 234 232 231 231 230 228 227 226 226 226 226 226 225 223 221 222 223 223 226 231 237 242 255 263 265 275 287 297 302 305 309 315 320 323 326 329 331 333 332 333
239 237 236 234 233 232 231 230 229 228 227 227 227 228 228 227 226 224 225 226 227 228 233 238 242 252 258 262 270 281 293 297 297 301 308 313 317 323 327 330 332 332 332
239 237 235 234 233 232 231 231 230 229 228 228 228 228 228 228 228 227 227 229 229 230 234 238 242 250 256 261 268 278 288 291 291 295 303 308 314 320 323 327 330 330 330
239 237 235 234 233 232 231 230 230 230 229 229 229 229 229 229 229 228 228 230 230 232 234 238 242 248 256 262 268 277 282 282 284 290 299 305 310 316 320 324 327 328 328
238 236 234 233 233 232 231 230 229 229 229 229 229 229 230 230 230 229 229 230 231 233 235 238 243 248 255 261 268 274 276 277 281 286 296 301 306 312 317 321 324 325 327
237 236 234 233 232 232 231 230 229 229 229 229 229 229 230 230 231 230 231 231 232 233 235 238 242 248 253 259 266 270 272 274 278 283 291 298 303 310 315 318 321 323 324
237 236 234 233 232 232 232 231 229 229 229 228 229 229 230 230 231 231 231 231 232 233 235 237 242 247 252 257 263 267 269 271 276 279 287 295 302 308 312 315 318 320 321
237 235 234 233 232 231 231 231 230 228 228 228 228 228 229 230 231 231 231 231 232 233 235 238 241 246 251 255 260 264 267 269 274 277 284 294 300 305 309 312 316 318 319
235 234 233 232 231 231 230 230 229 228 227 227 227 227 228 230 231 231 231 232 232 233 236 238 241 245 250 254 258 261 264 269 272 276 283 291 297 303 308 311 314 316 318
234 233 231 231 230 230 229 228 228 228 227 227 227 227 228 229 230 231 231 232 232 234 236 239 242 245 249 252 256 259 263 267 270 275 282 288 294 300 306 310 313 315 316
233 232 230 229 229 228 228 227 227 227 227 226 226 227 227 229 230 230 231 232 232 234 236 239 242 245 248 252 255 258 262 265 270 275 280 285 291 298 304 308 311 313 315
232 231 229 228 227 227 227 227 225 226 226 226 226 227 227 228 229 230 231 232 233 234 237 240 242 244 248 251 254 257 261 265 269 274 279 284 289 295 301 305 308 311 313
230 229 227 226 226 226 226 226 225 225 225 226 226 227 227 227 229 230 231 233 234 235 237 239 242 245 248 251 253 256 260 265 269 274 278 282 288 293 299 303 306 309 312
228 227 226 225 224 224 224 224 224 224 225 225 226 227 227 228 229 229 231 233 234 236 238 239 242 245 248 250 252 255 259 265 269 273 277 281 286 292 297 302 305 308 310
226 225 224 223 222 222 222 222 223 223 224 224 225 226 227 227 228 229 231 233 234 236 238 239 242 245 247 249 251 255 259 264 269 272 276 280 285 290 295 299 304 306 309
224 223 222 222 221 220 220 221 222 222 223 224 224 225 226 227 228 229 231 232 234 236 238 240 242 245 247 248 251 255 260 264 268 272 276 280 284 289 293 298 302 305 308
222 221 220 220 219 219 219 220 221 221 221 223 224 225 226 226 227 229 230 232 233 235 237 239 242 245 246 248 252 255 259 264 268 272 276 280 283 287 292 296 300 304 307
220 219 218 218 218 217 218 219 221 220 221 222 223 224 225 226 227 229 231 232 233 235 237 239 242 244 246 248 251 255 259 263 268 272 276 279 283 286 290 295 299 302 305
218 217 217 217 217 217 217 218 220 220 221 222 223 224 225 226 227 229 230 231 233 234 236 239 242 244 246 248 251 255 258 263 268 272 275 279 283 286 290 294 298 301 304
217 215 215 215 215 216 216 217 219 220 220 222 222 224 225 225 226 228 230 231 234 234 236 239 242 244 246 248 251 254 258 264 269 272 275 279 283 287 290 294 297 300 304
216 215 214 214 214 215 216 216 218 219 220 221 222 223 224 225 226 228 229 231 234 235 236 238 240 243 245 248 251 254 258 265 269 273 276 279 283 287 290 293 297 300 303
216 214 213 213 213 214 215 216 217 218 219 221 222 222 223 224 226 227 229 231 233 234 236 238 240 242 244 248 250 254 259 264 269 273 277 280 284 287 290 293 296 299 302
214 213 212 212 212 213 215 215 216 216 218 220 221 222 223 224 226 227 229 231 233 234 236 238 240 241 243 247 250 254 260 265 270 273 277 281 284 287 290 293 295 298 301
212 212 212 211 211 212 214 215 216 216 217 219 221 222 223 224 226 227 229 231 233 233 236 238 239 241 244 248 251 255 260 265 270 273 277 281 285 287 290 292 295 297 300
210 211 211 210 211 212 213 214 215 215 217 219 220 222 224 225 225 227 229 230 232 233 235 236 239 242 244 248 251 255 259 265 270 273 277 281 284 288 290 293 295 297 300
209 209 210 211 211 211 213 214 215 216 218 219 220 222 223 224 226 228 229 230 231 232 234 236 239 242 244 247 252 255 260 265 269 273 277 281 285 288 290 292 294 298 300
Height
5848 5850 5852 5855 5857 5859 5861 5863 5864 5866 5868 5869 5871 5872 5873 5874 5875 5875 5876 5876 5877 5877 5877 5877 5877 5876 5876 5876 5875 5875 5874 5874 5873 5872 5871 5870 5869 5868 5867 5866 5864 5863 5861
5843 5845 5847 5850 5852 5854 5856 5858 5860 5862 5864 5866 5867 5869 5870 5871 5872 5873 5874 5874 5875 5875 5875 5875 5875 5875 5875 5874 5874 5874 5873 5872 5872 5871 5870 5869 5868 5867 5866 5864 5863 5861 5859
5837 5840 5842 5844 5847 5849 5852 5854 5856 5858 5860 5862 5864 5865 5867 5868 5869 5870 5871 5872 5872 5873 5873 5873 5873 5873 5873 5873 5872 5872 5872 5871 5870 5869 5869 5868 5867 5865 5864 5863 5861 5859 5858
5831 5834 5836 5839 5841 5844 5846 5849 5851 5854 5856 5858 5860 5861 5863 5864 5866 5867 5868 5869 5870 5870 5871 5871 5871 5871 5871 5871 5871 5870 5870 5869 5869 5868 5867 5866 5865 5864 5862 5861 5859 5857 5856
5825 5827 5830 5833 5835 5838 5841 5843 5846 5849 5851 5854 5856 5857 5859 5861 5862 5864 5865 5866 5867 5868 5868 5869 5869 5869 5869 5869 5869 5869 5868 5868 5867 5866 5865 5864 5863 5862 5861 5859 5857 5855 5853
5817 5820 5823 5826 5829 5832 5834 5837 5840 5843 5846 5849 5851 5853 5855 5857 5859 5860 5862 5863 5864 5865 5865 5866 5867 5867 5867 5867 5867 5866 5866 5866 5865 5864 5863 5862 5861 5860 5859 5857 5855 5853 5851
5809 5812 5815 5818 5822 5825 5828 5831 5834 5837 5840 5843 5846 5848 5850 5853 5855 5856 5858 5859 5861 5862 5862 5863 5864 5864 5864 5864 5864 5864 5864 5863 5863 5862 5861 5860 5859 5858 5856 5854 5853 5851 5849
5800 5803 5807 5811 5814 5818 5821 5825 5828 5831 5834 5837 5840 5843 5845 5848 5850 5852 5854 5856 5857 5858 5859 5860 5861 5861 5861 5862 5862 5861 5861 5861 5860 5860 5859 5858 5857 5855 5854 5852 5850 5848 5846
5790 5794 5798 5802 5806 5810 5814 5817 5821 5824 5828 5831 5834 5837 5840 5843 5845 5847 5850 5851 5853 5854 5855 5856 5857 5858 5858 5859 5859 5859 5859 5858 5858 5857 5856 5855 5854 5853 5851 5849 5847 5845 5843
5780 5784 5789 5794 5798 5802 5806 5810 5814 5818 5821 5824 5828 5831 5835 5837 5840 5842 5845 5847 5848 5850 5851 5852 5853 5854 5855 5855 5856 5856 5855 5855 5855 5854 5853 5852 5851 5850 5848 5846 5844 5842 5839
5769 5774 5779 5784 5789 5794 5798 5802 5806 5810 5814 5817 5821 5825 5828 5831 5834 5837 5840 5842 5844 5846 5847 5848 5850 5850 5851 5852 5852 5852 5852 5852 5852 5851 5850 5849 5848 5847 5845 5843 5841 5838 5836
5758 5763 5769 5774 5780 5785 5789 5794 5798 5802 5806 5811 5815 5819 5822 5826 5829 5832 5834 5837 5839 5841 5842 5844 5845 5846 5847 5848 5848 5849 5849 5848 5848 5848 5847 5846 5845 5843 5841 5839 5837 5835 5832
5745 5751 5757 5764 5770 5775 5780 5785 5790 5795 5799 5804 5808 5812 5816 5819 5823 5826 5829 5831 5834 5836 5838 5839 5841 5842 5843 5844 5844 5845 5845 5845 5844 5844 5843 5842 5841 5839 5838 5835 5833 5831 5828
5731 5738 5745 5752 5759 5765 5770 5776 5782 5787 5792 5796 5801 5805 5809 5813 5817 5820 5823 5826 5828 5831 5833 5834 5836 5837 5839 5840 5840 5841 5841 5841 5840 5840 5839 5838 5837 5835 5833 5831 5829 5827 5824
5716 5725 5733 5740 5747 5754 5760 5767 5773 5778 5784 5789 5793 5798 5802 5806 5810 5814 5817 5820 5823 5825 5827 5829 5831 5833 5834 5835 5836 5836 5837 5836 5836 5836 5835 5834 5833 5831 5829 5827 5825 5822 5819
5702 5711 5720 5728 5736 5743 5750 5757 5764 5769 5776 5781 5786 5790 5795 5799 5803 5807 5811 5814 5817 5820 5822 5824 5826 5828 5829 5830 5831 5832 5832 5832 5832 5831 5831 5829 5828 5827 5825 5822 5820 5817 5814
5688 5698 5707 5716 5724 5733 5740 5747 5754 5760 5766 5772 5777 5782 5787 5792 5796 5800 5804 5808 5811 5814 5816 5818 5820 5822 5824 5825 5826 5827 5827 5827 5827 5827 5826 5825 5823 5822 5820 5818 5815 5812 5809
5675 5685 5694 5703 5713 5722 5730 5738 5744 5751 5757 5763 5769 5774 5779 5784 5789 5793 5797 5801 5804 5807 5810 5813 5815 5817 5818 5820 5821 5822 5822 5822 5822 5822 5821 5820 5818 5817 5815 5812 5810 5807 5804
5661 5672 5682 5692 5702 5711 5719 5727 5734 5741 5748 5754 5760 5766 5771 5776 5781 5786 5790 5794 5798 5801 5804 5807 5809 5811 5813 5814 5816 5817 5817 5817 5817 5816 5816 5814 5813 5811 5809 5807 5804 5801 5798
5648 5659 5669 5680 5690 5700 5709 5717 5724 5732 5739 5745 5752 5758 5763 5769 5774 5779 5783 5787 5791 5794 5797 5800 5803 5805 5807 5808 5810 5811 5812 5812 5812 5811 5810 5809 5807 5806 5804 5801 5799 5796 5792
5636 5647 5658 5669 5679 5689 5698 5707 5715 5723 5730 5737 5743 5750 5755 5761 5766 5771 5776 5780 5784 5788 5791 5794 5796 5799 5801 5802 5804 5805 5806 5806 5806 5805 5804 5803 5802 5800 5798 5795 5792 5789 5786
5624 5636 5647 5658 5668 5678 5689 5698 5706 5715 5722 5729 5735 5741 5747 5753 5759 5764 5769 5773 5777 5781 5784 5787 5790 5792 5795 5796 5798 5799 5800 5801 5800 5799 5798 5797 5796 5794 5792 5789 5786 5783 5779
5614 5625 5637 5648 5658 5669 5678 5687 5696 5704 5711 5718 5726 5733 5740 5746 5751 5756 5761 5766 5770 5774 5777 5780 5783 5786 5788 5790 5791 5793 5794 5794 5794 5793 5792 5791 5789 5788 5785 5783 5780 5776 5772
5604 5615 5626 5638 5649 5658 5668 5677 5686 5696 5704 5711 5719 5725 5732 5738 5743 5749 5754 5759 5763 5767 5770 5773 5776 5779 5781 5783 5785 5786 5787 5788 5788 5787 5786 5785 5783 5781 5779 5776 5773 5769 5765
5595 5605 5616 5627 5638 5648 5659 5668 5678 5687 5695 5702 5709 5716 5723 5729 5735 5741 5746 5751 5755 5760 5763 5767 5769 5772 5775 5777 5778 5779 5780 5781 5780 5780 5779 5778 5776 5774 5772 5769 5765 5762 5758
5587 5597 5607 5618 5629 5640 5650 5660 5669 5678 5686 5693 5700 5708 5715 5721 5727 5733 5739 5744 5748 5752 5756 5759 5762 5765 5768 5770 5771 5773 5774 5774 5774 5773 5772 5771 5769 5767 5764 5761 5758 5754 5751